Time,TemperatureF,DewpointF,PressureIn,WindDirection,WindDirectionDegrees,WindSpeedMPH,WindSpeedGustMPH,Humidity,HourlyPrecipIn,Conditions,Clouds,dailyrainin,SoftwareType,DateUTC
2013-12-12 00:00:00,7.0,4.5,30.69,West,259,0.0,0.9,89,0.00,,,0.00,meteobridge,2013-12-12 06:00:00,
2013-12-12 00:06:00,7.0,4.5,30.68,West,259,0.9,0.9,89,0.00,,,0.00,meteobridge,2013-12-12 06:06:00,
2013-12-12 00:11:00,6.8,4.3,30.68,West,259,0.9,0.9,89,0.00,,,0.00,meteobridge,2013-12-12 06:11:00,
2013-12-12 00:16:00,6.6,4.1,30.68,West,259,0.9,0.9,89,0.00,,,0.00,meteobridge,2013-12-12 06:16:00,
2013-12-12 00:21:00,6.4,3.9,30.68,West,259,0.0,0.0,89,0.00,,,0.00,meteobridge,2013-12-12 06:21:00,
2013-12-12 00:26:00,6.4,3.9,30.67,West,259,0.0,0.0,89,0.00,,,0.00,meteobridge,2013-12-12 06:26:00,
2013-12-12 00:32:00,6.3,3.7,30.68,West,259,0.0,0.0,89,0.00,,,0.00,meteobridge,2013-12-12 06:32:00,
2013-12-12 00:37:00,6.1,3.6,30.67,West,259,0.0,0.0,89,0.00,,,0.00,meteobridge,2013-12-12 06:37:00,
2013-12-12 00:42:00,5.9,3.4,30.66,West,259,0.0,0.0,89,0.00,,,0.00,meteobridge,2013-12-12 06:42:00,
2013-12-12 00:47:00,5.9,3.6,30.66,West,259,0.9,0.9,90,0.00,,,0.00,meteobridge,2013-12-12 06:47:00,
2013-12-12 00:52:00,5.9,3.6,30.66,West,259,0.0,0.9,90,0.00,,,0.00,meteobridge,2013-12-12 06:52:00,
2013-12-12 00:58:00,5.7,3.2,30.66,West,259,0.9,0.9,89,0.00,,,0.00,meteobridge,2013-12-12 06:58:00,
2013-12-12 01:03:00,5.7,3.2,30.66,West,259,0.0,0.0,89,0.00,,,0.00,meteobridge,2013-12-12 07:03:00,
2013-12-12 01:08:00,5.5,3.0,30.66,West,259,0.0,0.0,89,0.00,,,0.00,meteobridge,2013-12-12 07:08:00,
2013-12-12 01:13:00,5.5,3.0,30.66,West,259,0.0,0.0,89,0.00,,,0.00,meteobridge,2013-12-12 07:13:00,
2013-12-12 01:18:00,5.4,2.8,30.66,West,259,0.0,0.0,89,0.00,,,0.00,meteobridge,2013-12-12 07:18:00,
2013-12-12 01:24:00,5.4,3.0,30.65,West,259,0.0,0.0,90,0.00,,,0.00,meteobridge,2013-12-12 07:24:00,
2013-12-12 01:29:00,5.4,3.0,30.65,West,259,0.0,0.0,90,0.00,,,0.00,meteobridge,2013-12-12 07:29:00,
2013-12-12 01:34:00,5.4,3.0,30.65,West,259,0.0,0.0,90,0.00,,,0.00,meteobridge,2013-12-12 07:34:00,
2013-12-12 01:39:00,5.4,3.0,30.65,West,259,0.0,0.0,90,0.00,,,0.00,meteobridge,2013-12-12 07:39:00,
2013-12-12 01:44:00,5.4,3.0,30.65,West,259,0.0,0.0,90,0.00,,,0.00,meteobridge,2013-12-12 07:44:00,
2013-12-12 01:50:00,5.4,3.0,30.64,West,259,0.0,0.0,90,0.00,,,0.00,meteobridge,2013-12-12 07:50:00,
2013-12-12 01:55:00,5.4,3.0,30.64,West,259,0.0,0.0,90,0.00,,,0.00,meteobridge,2013-12-12 07:55:00,
2013-12-12 02:00:00,5.4,3.0,30.65,West,259,0.9,0.9,90,0.00,,,0.00,meteobridge,2013-12-12 08:00:00,
2013-12-12 02:05:00,5.2,2.8,30.65,West,259,0.9,0.9,90,0.00,,,0.00,meteobridge,2013-12-12 08:05:00,
2013-12-12 02:10:00,5.2,2.8,30.65,West,259,0.0,0.9,90,0.00,,,0.00,meteobridge,2013-12-12 08:10:00,
2013-12-12 02:16:00,5.2,2.8,30.65,West,259,0.0,0.0,90,0.00,,,0.00,meteobridge,2013-12-12 08:16:00,
2013-12-12 02:21:00,5.2,2.8,30.65,West,259,0.0,0.9,90,0.00,,,0.00,meteobridge,2013-12-12 08:21:00,
2013-12-12 02:26:00,4.8,2.3,30.65,West,259,0.0,0.9,89,0.00,,,0.00,meteobridge,2013-12-12 08:26:00,
2013-12-12 02:31:00,4.8,2.3,30.65,West,259,0.9,0.9,89,0.00,,,0.00,meteobridge,2013-12-12 08:31:00,
2013-12-12 02:36:00,4.6,2.1,30.65,West,259,0.9,0.9,89,0.00,,,0.00,meteobridge,2013-12-12 08:36:00,
2013-12-12 02:42:00,4.6,2.1,30.64,West,259,0.9,0.9,89,0.00,,,0.00,meteobridge,2013-12-12 08:42:00,
2013-12-12 02:47:00,4.5,1.9,30.64,West,259,0.0,0.9,89,0.00,,,0.00,meteobridge,2013-12-12 08:47:00,
2013-12-12 02:52:00,4.5,2.1,30.65,West,259,0.0,0.9,90,0.00,,,0.00,meteobridge,2013-12-12 08:52:00,
2013-12-12 02:57:00,4.5,2.1,30.64,West,259,0.9,0.9,90,0.00,,,0.00,meteobridge,2013-12-12 08:57:00,
2013-12-12 03:02:00,4.5,2.1,30.64,West,259,0.9,0.9,90,0.00,,,0.00,meteobridge,2013-12-12 09:02:00,
2013-12-12 03:08:00,4.5,2.1,30.65,SSE,160,0.9,2.0,90,0.00,,,0.00,meteobridge,2013-12-12 09:08:00,
2013-12-12 03:13:00,4.6,2.3,30.65,SSE,160,0.9,0.9,90,0.00,,,0.00,meteobridge,2013-12-12 09:13:00,
2013-12-12 03:18:00,4.6,2.3,30.64,SSE,160,0.0,0.9,90,0.00,,,0.00,meteobridge,2013-12-12 09:18:00,
2013-12-12 03:23:00,4.8,2.8,30.64,SSE,160,0.0,0.9,91,0.00,,,0.00,meteobridge,2013-12-12 09:23:00,
2013-12-12 03:28:00,4.8,2.5,30.64,SSE,160,0.0,0.9,90,0.00,,,0.00,meteobridge,2013-12-12 09:28:00,
2013-12-12 03:34:00,4.8,2.5,30.63,SSE,160,0.0,0.9,90,0.00,,,0.00,meteobridge,2013-12-12 09:34:00,
2013-12-12 03:39:00,4.8,2.5,30.63,SSE,160,0.9,0.9,90,0.00,,,0.00,meteobridge,2013-12-12 09:39:00,
2013-12-12 03:44:00,4.6,2.1,30.63,SSE,160,0.0,0.0,89,0.00,,,0.00,meteobridge,2013-12-12 09:44:00,
2013-12-12 03:49:00,4.6,2.1,30.63,SSE,160,0.0,0.0,89,0.00,,,0.00,meteobridge,2013-12-12 09:49:00,
2013-12-12 03:54:00,4.5,1.9,30.64,SSE,160,0.0,0.0,89,0.00,,,0.00,meteobridge,2013-12-12 09:54:00,
2013-12-12 04:00:00,4.5,1.9,30.63,SSE,160,0.0,0.0,89,0.00,,,0.00,meteobridge,2013-12-12 10:00:00,
2013-12-12 04:05:00,4.3,1.8,30.63,SSE,160,0.0,0.0,89,0.00,,,0.00,meteobridge,2013-12-12 10:05:00,
2013-12-12 04:10:00,4.3,1.8,30.63,SSE,160,0.0,0.0,89,0.00,,,0.00,meteobridge,2013-12-12 10:10:00,
2013-12-12 04:15:00,4.1,1.6,30.63,SSE,160,0.0,0.0,89,0.00,,,0.00,meteobridge,2013-12-12 10:15:00,
2013-12-12 04:20:00,3.9,1.4,30.62,SSE,160,0.0,0.9,89,0.00,,,0.00,meteobridge,2013-12-12 10:20:00,
2013-12-12 04:26:00,3.9,1.6,30.62,SSE,160,0.0,0.9,90,0.00,,,0.00,meteobridge,2013-12-12 10:26:00,
2013-12-12 04:31:00,3.9,1.6,30.61,SSE,160,0.0,0.9,90,0.00,,,0.00,meteobridge,2013-12-12 10:31:00,
2013-12-12 04:36:00,3.9,1.4,30.61,SSE,160,0.9,0.9,89,0.00,,,0.00,meteobridge,2013-12-12 10:36:00,
2013-12-12 04:41:00,3.7,1.2,30.61,SSE,160,0.0,0.0,89,0.00,,,0.00,meteobridge,2013-12-12 10:41:00,
2013-12-12 04:46:00,3.7,1.2,30.61,SSE,160,0.0,0.0,89,0.00,,,0.00,meteobridge,2013-12-12 10:46:00,
2013-12-12 04:52:00,3.6,1.0,30.61,SSE,160,0.0,0.0,89,0.00,,,0.00,meteobridge,2013-12-12 10:52:00,
2013-12-12 04:57:00,3.6,1.0,30.61,SSE,160,0.0,0.0,89,0.00,,,0.00,meteobridge,2013-12-12 10:57:00,
2013-12-12 05:02:00,3.6,1.2,30.60,SSE,160,0.0,0.9,90,0.00,,,0.00,meteobridge,2013-12-12 11:02:00,
2013-12-12 05:07:00,3.6,1.0,30.60,SSE,160,0.0,0.0,89,0.00,,,0.00,meteobridge,2013-12-12 11:07:00,
2013-12-12 05:12:00,3.4,0.9,30.60,SSE,160,0.0,0.9,89,0.00,,,0.00,meteobridge,2013-12-12 11:12:00,
2013-12-12 05:18:00,3.6,1.2,30.60,SSE,160,0.0,0.0,90,0.00,,,0.00,meteobridge,2013-12-12 11:18:00,
2013-12-12 05:23:00,3.6,1.2,30.60,SSE,160,0.0,0.0,90,0.00,,,0.00,meteobridge,2013-12-12 11:23:00,
2013-12-12 05:28:00,3.6,1.0,30.60,SSE,160,0.0,0.0,89,0.00,,,0.00,meteobridge,2013-12-12 11:28:00,
2013-12-12 05:33:00,3.4,0.9,30.60,SSE,160,0.0,0.0,89,0.00,,,0.00,meteobridge,2013-12-12 11:33:00,
2013-12-12 05:38:00,3.4,1.0,30.60,SSE,160,0.0,0.0,90,0.00,,,0.00,meteobridge,2013-12-12 11:38:00,
2013-12-12 05:44:00,3.4,1.0,30.59,SSE,160,0.0,0.0,90,0.00,,,0.00,meteobridge,2013-12-12 11:44:00,
2013-12-12 05:49:00,3.4,1.0,30.59,SSE,160,0.0,0.0,90,0.00,,,0.00,meteobridge,2013-12-12 11:49:00,
2013-12-12 05:54:00,3.4,1.0,30.60,SSE,160,0.0,0.0,90,0.00,,,0.00,meteobridge,2013-12-12 11:54:00,
2013-12-12 05:59:00,3.7,1.8,30.60,SSE,160,0.0,0.0,91,0.00,,,0.00,meteobridge,2013-12-12 11:59:00,
2013-12-12 06:04:00,3.9,1.9,30.60,SSE,160,0.0,0.0,91,0.00,,,0.00,meteobridge,2013-12-12 12:04:00,
2013-12-12 06:10:00,3.7,1.4,30.60,SSE,160,0.0,0.0,90,0.00,,,0.00,meteobridge,2013-12-12 12:10:00,
2013-12-12 06:15:00,3.7,1.4,30.60,SSE,160,0.0,0.9,90,0.00,,,0.00,meteobridge,2013-12-12 12:15:00,
2013-12-12 06:20:00,3.7,1.2,30.60,SSE,160,0.0,0.0,89,0.00,,,0.00,meteobridge,2013-12-12 12:20:00,
2013-12-12 06:25:00,3.6,1.0,30.60,SSE,160,0.0,0.0,89,0.00,,,0.00,meteobridge,2013-12-12 12:25:00,
2013-12-12 06:30:00,3.6,1.0,30.60,SSE,160,0.0,0.0,89,0.00,,,0.00,meteobridge,2013-12-12 12:30:00,
2013-12-12 06:36:00,3.4,0.9,30.60,SSE,160,0.0,0.0,89,0.00,,,0.00,meteobridge,2013-12-12 12:36:00,
2013-12-12 06:41:00,3.4,0.9,30.60,SSE,160,0.0,0.0,89,0.00,,,0.00,meteobridge,2013-12-12 12:41:00,
2013-12-12 06:46:00,3.2,0.7,30.60,SSE,160,0.0,0.0,89,0.00,,,0.00,meteobridge,2013-12-12 12:46:00,
2013-12-12 06:51:00,3.0,0.5,30.60,SSE,160,0.0,0.0,89,0.00,,,0.00,meteobridge,2013-12-12 12:51:00,
2013-12-12 06:57:00,3.0,0.5,30.61,SSE,160,0.0,0.0,89,0.00,,,0.00,meteobridge,2013-12-12 12:57:00,
2013-12-12 07:02:00,2.8,0.3,30.61,SSE,160,0.0,0.9,89,0.00,,,0.00,meteobridge,2013-12-12 13:02:00,
2013-12-12 07:07:00,3.0,0.5,30.61,SSE,160,0.0,0.0,89,0.00,,,0.00,meteobridge,2013-12-12 13:07:00,
2013-12-12 07:12:00,3.0,0.7,30.61,SSE,160,0.0,0.9,90,0.00,,,0.00,meteobridge,2013-12-12 13:12:00,
2013-12-12 07:17:00,3.0,0.5,30.61,SSE,160,0.0,0.0,89,0.00,,,0.00,meteobridge,2013-12-12 13:17:00,
2013-12-12 07:23:00,3.0,0.7,30.61,SSE,160,0.9,0.9,90,0.00,,,0.00,meteobridge,2013-12-12 13:23:00,
2013-12-12 07:28:00,3.2,0.9,30.61,SSE,159,0.9,0.9,90,0.00,,,0.00,meteobridge,2013-12-12 13:28:00,
2013-12-12 07:33:00,3.4,1.0,30.61,SSE,159,0.9,0.9,90,0.00,,,0.00,meteobridge,2013-12-12 13:33:00,
2013-12-12 07:38:00,3.4,0.9,30.61,SSE,159,0.0,0.9,89,0.00,,,0.00,meteobridge,2013-12-12 13:38:00,
2013-12-12 07:44:00,3.6,1.0,30.61,SSE,159,0.0,0.9,89,0.00,,,0.00,meteobridge,2013-12-12 13:44:00,
2013-12-12 07:49:00,3.9,1.6,30.61,SSE,159,0.0,0.9,90,0.00,,,0.00,meteobridge,2013-12-12 13:49:00,
2013-12-12 07:54:00,4.5,2.1,30.61,SSE,159,0.0,2.0,90,0.00,,,0.00,meteobridge,2013-12-12 13:54:00,
2013-12-12 08:00:00,5.2,2.8,30.62,SSE,163,0.0,0.9,90,0.00,,,0.00,meteobridge,2013-12-12 14:00:00,
2013-12-12 08:06:00,5.7,3.2,30.62,SSE,163,0.0,0.9,89,0.00,,,0.00,meteobridge,2013-12-12 14:06:00,
2013-12-12 08:11:00,6.3,3.7,30.62,SSE,163,0.0,0.0,89,0.00,,,0.00,meteobridge,2013-12-12 14:11:00,
2013-12-12 08:16:00,7.0,4.5,30.62,SSE,163,0.0,0.9,89,0.00,,,0.00,meteobridge,2013-12-12 14:16:00,
2013-12-12 08:21:00,7.5,5.0,30.62,SSE,163,0.0,0.0,89,0.00,,,0.00,meteobridge,2013-12-12 14:21:00,
2013-12-12 08:26:00,8.4,5.9,30.62,SSE,163,0.0,0.9,89,0.00,,,0.00,meteobridge,2013-12-12 14:26:00,
2013-12-12 08:32:00,9.1,6.6,30.62,SSE,163,0.0,0.0,89,0.00,,,0.00,meteobridge,2013-12-12 14:32:00,
2013-12-12 08:37:00,10.2,7.9,30.62,SSE,163,0.0,0.0,90,0.00,,,0.00,meteobridge,2013-12-12 14:37:00,
2013-12-12 08:42:00,11.8,9.7,30.63,SSE,163,0.0,0.9,91,0.00,,,0.00,meteobridge,2013-12-12 14:42:00,
2013-12-12 08:47:00,13.6,10.8,30.62,SSE,163,0.9,2.0,88,0.00,,,0.00,meteobridge,2013-12-12 14:47:00,
2013-12-12 08:52:00,14.5,10.9,30.62,SSE,163,0.0,0.9,85,0.00,,,0.00,meteobridge,2013-12-12 14:52:00,
2013-12-12 08:58:00,15.3,10.8,30.62,SSE,163,0.0,0.9,82,0.00,,,0.00,meteobridge,2013-12-12 14:58:00,
2013-12-12 09:03:00,15.4,10.9,30.62,SSE,163,0.0,2.0,82,0.00,,,0.00,meteobridge,2013-12-12 15:03:00,
2013-12-12 09:08:00,15.6,11.3,30.62,SSE,163,0.0,0.9,83,0.00,,,0.00,meteobridge,2013-12-12 15:08:00,
2013-12-12 09:13:00,16.3,12.4,30.63,SSE,163,0.0,0.9,84,0.00,,,0.00,meteobridge,2013-12-12 15:13:00,
2013-12-12 09:18:00,17.4,13.5,30.63,SSE,163,0.0,0.9,84,0.00,,,0.00,meteobridge,2013-12-12 15:18:00,
2013-12-12 09:24:00,18.9,14.5,30.63,SSE,163,0.9,0.9,83,0.00,,,0.00,meteobridge,2013-12-12 15:24:00,
2013-12-12 09:29:00,20.1,15.3,30.63,SSE,163,0.9,2.0,81,0.00,,,0.00,meteobridge,2013-12-12 15:29:00,
2013-12-12 09:35:00,22.3,16.2,30.63,SSE,163,0.9,2.0,77,0.00,,,0.00,meteobridge,2013-12-12 15:35:00,
2013-12-12 09:40:00,23.5,16.7,30.63,SSE,150,4.0,4.0,75,0.00,,,0.00,meteobridge,2013-12-12 15:40:00,
2013-12-12 09:45:00,24.8,17.4,30.62,SSE,160,0.9,2.0,73,0.00,,,0.00,meteobridge,2013-12-12 15:45:00,
2013-12-12 09:53:00,26.4,18.0,30.62,SSE,161,2.0,4.0,70,0.00,,,0.00,meteobridge,2013-12-12 15:53:00,
2013-12-12 09:58:00,27.3,18.1,30.62,SSE,166,0.9,2.9,68,0.00,,,0.00,meteobridge,2013-12-12 15:58:00,
2013-12-12 10:03:00,27.9,18.7,30.62,SSW,195,2.0,2.9,68,0.00,,,0.00,meteobridge,2013-12-12 16:03:00,
2013-12-12 10:08:00,28.4,18.9,30.61,SSW,211,2.0,4.9,67,0.00,,,0.00,meteobridge,2013-12-12 16:08:00,
2013-12-12 10:13:00,29.3,19.4,30.61,South,176,2.0,6.0,66,0.00,,,0.00,meteobridge,2013-12-12 16:13:00,
2013-12-12 10:19:00,30.0,19.8,30.61,SSW,212,0.9,4.0,65,0.00,,,0.00,meteobridge,2013-12-12 16:19:00,
2013-12-12 10:24:00,30.9,20.5,30.61,SSW,202,2.0,6.0,65,0.00,,,0.00,meteobridge,2013-12-12 16:24:00,
2013-12-12 10:29:00,31.8,20.7,30.60,SSE,153,0.9,4.9,63,0.00,,,0.00,meteobridge,2013-12-12 16:29:00,
2013-12-12 10:34:00,32.9,22.1,30.60,SW,221,2.9,4.9,64,0.01,,,0.01,meteobridge,2013-12-12 16:34:00,
2013-12-12 10:43:00,34.0,21.6,30.60,SW,227,4.0,4.9,60,0.01,,,0.01,meteobridge,2013-12-12 16:43:00,
2013-12-12 10:49:00,34.3,21.9,30.60,SW,219,2.0,2.0,60,0.01,,,0.01,meteobridge,2013-12-12 16:49:00,
2013-12-12 10:54:00,34.9,21.6,30.60,SSW,209,2.9,8.1,58,0.01,,,0.01,meteobridge,2013-12-12 16:54:00,
2013-12-12 10:59:00,35.1,21.0,30.60,SW,217,8.9,8.9,56,0.01,,,0.01,meteobridge,2013-12-12 16:59:00,
2013-12-12 11:04:00,35.2,21.2,30.59,WSW,252,8.9,10.1,56,0.01,,,0.01,meteobridge,2013-12-12 17:04:00,
2013-12-12 11:10:00,35.8,21.6,30.59,SW,225,4.0,6.9,56,0.01,,,0.01,meteobridge,2013-12-12 17:10:00,
2013-12-12 11:15:00,36.1,21.6,30.59,SSW,211,6.0,8.9,55,0.01,,,0.01,meteobridge,2013-12-12 17:15:00,
2013-12-12 11:20:00,36.5,21.4,30.58,SW,219,2.9,4.0,54,0.01,,,0.01,meteobridge,2013-12-12 17:20:00,
2013-12-12 11:25:00,36.9,20.5,30.58,SW,228,4.0,12.1,51,0.01,,,0.01,meteobridge,2013-12-12 17:25:00,
2013-12-12 11:30:00,37.0,21.0,30.57,SW,219,2.9,4.9,52,0.02,,,0.02,meteobridge,2013-12-12 17:30:00,
2013-12-12 11:37:00,37.4,20.8,30.57,WSW,238,4.0,6.9,51,0.01,,,0.02,meteobridge,2013-12-12 17:37:00,
2013-12-12 11:43:00,37.8,20.3,30.56,SW,214,6.0,6.9,49,0.01,,,0.02,meteobridge,2013-12-12 17:43:00,
2013-12-12 11:48:00,37.9,21.0,30.56,SW,222,4.9,6.0,50,0.01,,,0.02,meteobridge,2013-12-12 17:48:00,
2013-12-12 11:53:00,38.1,20.7,30.56,SSW,201,6.0,8.9,49,0.02,,,0.03,meteobridge,2013-12-12 17:53:00,
2013-12-12 11:58:00,38.5,21.9,30.55,SSW,213,2.9,10.1,51,0.02,,,0.03,meteobridge,2013-12-12 17:58:00,
2013-12-12 12:03:00,38.5,21.0,30.55,SSW,209,6.0,8.9,49,0.02,,,0.03,meteobridge,2013-12-12 18:03:00,
2013-12-12 12:08:00,38.5,21.4,30.55,SSW,213,0.9,6.0,50,0.02,,,0.03,meteobridge,2013-12-12 18:08:00,
2013-12-12 12:13:00,38.8,20.8,30.54,South,180,4.9,6.9,48,0.02,,,0.03,meteobridge,2013-12-12 18:13:00,
2013-12-12 12:18:00,39.0,21.9,30.54,SW,221,10.1,10.1,50,0.02,,,0.03,meteobridge,2013-12-12 18:18:00,
2013-12-12 12:24:00,39.0,21.0,30.54,SSW,202,0.9,13.0,48,0.02,,,0.03,meteobridge,2013-12-12 18:24:00,
2013-12-12 12:29:00,39.0,22.5,30.53,SSW,207,2.0,8.9,51,0.01,,,0.03,meteobridge,2013-12-12 18:29:00,
2013-12-12 12:34:00,39.6,22.5,30.53,SSW,208,4.0,11.0,50,0.01,,,0.03,meteobridge,2013-12-12 18:34:00,
2013-12-12 12:39:00,39.4,22.3,30.53,SSW,209,2.9,8.9,50,0.02,,,0.04,meteobridge,2013-12-12 18:39:00,
2013-12-12 12:44:00,39.4,22.3,30.53,SSW,212,2.9,8.9,50,0.02,,,0.04,meteobridge,2013-12-12 18:44:00,
2013-12-12 12:49:00,39.6,23.0,30.52,WSW,249,4.9,8.9,51,0.01,,,0.04,meteobridge,2013-12-12 18:49:00,
2013-12-12 12:54:00,39.7,23.2,30.52,SSW,212,2.9,8.1,51,0.01,,,0.04,meteobridge,2013-12-12 18:54:00,
2013-12-12 12:59:00,39.9,22.8,30.51,SSW,212,6.9,10.1,50,0.01,,,0.04,meteobridge,2013-12-12 18:59:00,
2013-12-12 13:05:00,39.9,22.8,30.51,SW,214,2.0,6.9,50,0.02,,,0.05,meteobridge,2013-12-12 19:05:00,
2013-12-12 13:10:00,40.3,23.5,30.51,SSW,202,4.0,6.0,51,0.02,,,0.05,meteobridge,2013-12-12 19:10:00,
2013-12-12 13:15:00,40.3,23.2,30.51,SSW,211,6.9,10.1,50,0.02,,,0.05,meteobridge,2013-12-12 19:15:00,
2013-12-12 13:20:00,40.3,23.2,30.51,SSW,192,4.9,4.9,50,0.02,,,0.05,meteobridge,2013-12-12 19:20:00,
2013-12-12 13:25:00,40.3,23.2,30.50,SSW,210,4.0,6.0,50,0.02,,,0.05,meteobridge,2013-12-12 19:25:00,
2013-12-12 13:30:00,40.5,22.8,30.50,SW,225,4.0,10.1,49,0.02,,,0.05,meteobridge,2013-12-12 19:30:00,
2013-12-12 13:36:00,40.5,23.7,30.50,SW,229,6.0,6.9,51,0.01,,,0.05,meteobridge,2013-12-12 19:36:00,
2013-12-12 13:41:00,40.6,23.9,30.50,SW,221,4.9,6.9,51,0.01,,,0.05,meteobridge,2013-12-12 19:41:00,
2013-12-12 13:46:00,40.6,23.9,30.49,SSW,205,0.9,2.9,51,0.01,,,0.05,meteobridge,2013-12-12 19:46:00,
2013-12-12 13:51:00,41.2,24.4,30.49,SW,215,4.0,6.9,51,0.01,,,0.05,meteobridge,2013-12-12 19:51:00,
2013-12-12 13:56:00,41.4,23.7,30.49,SSW,201,2.9,6.0,49,0.01,,,0.05,meteobridge,2013-12-12 19:56:00,
2013-12-12 14:02:00,41.4,24.1,30.48,SW,236,4.0,8.9,50,0.01,,,0.05,meteobridge,2013-12-12 20:02:00,
2013-12-12 14:07:00,41.2,23.9,30.48,SW,229,0.9,8.1,50,0.01,,,0.06,meteobridge,2013-12-12 20:07:00,
2013-12-12 14:12:00,41.5,24.3,30.48,SW,224,2.0,4.9,50,0.01,,,0.06,meteobridge,2013-12-12 20:12:00,
2013-12-12 14:18:00,41.4,24.6,30.48,SW,233,2.0,4.9,51,0.01,,,0.06,meteobridge,2013-12-12 20:18:00,
2013-12-12 14:23:00,41.4,25.0,30.47,South,187,4.0,4.9,52,0.01,,,0.06,meteobridge,2013-12-12 20:23:00,
2013-12-12 14:28:00,41.7,25.3,30.48,SW,216,4.9,6.0,52,0.01,,,0.06,meteobridge,2013-12-12 20:28:00,
2013-12-12 14:33:00,42.1,24.8,30.47,SSW,199,2.9,6.9,50,0.01,,,0.06,meteobridge,2013-12-12 20:33:00,
2013-12-12 14:38:00,41.7,24.4,30.47,SSW,197,6.9,8.1,50,0.01,,,0.06,meteobridge,2013-12-12 20:38:00,
2013-12-12 14:43:00,41.9,25.2,30.47,SW,215,2.9,4.9,51,0.01,,,0.06,meteobridge,2013-12-12 20:43:00,
2013-12-12 14:49:00,42.1,24.8,30.47,SSW,193,0.0,4.9,50,0.01,,,0.06,meteobridge,2013-12-12 20:49:00,
2013-12-12 14:54:00,42.3,25.0,30.47,SW,215,2.9,6.0,50,0.01,,,0.06,meteobridge,2013-12-12 20:54:00,
2013-12-12 14:59:00,42.3,25.3,30.46,SW,228,6.0,8.1,51,0.01,,,0.06,meteobridge,2013-12-12 20:59:00,
2013-12-12 15:04:00,42.3,25.0,30.46,SW,223,4.0,8.1,50,0.01,,,0.06,meteobridge,2013-12-12 21:04:00,
2013-12-12 15:10:00,42.3,25.0,30.46,SSW,204,0.9,4.0,50,0.00,,,0.06,meteobridge,2013-12-12 21:10:00,
2013-12-12 15:15:00,42.1,25.3,30.46,SW,232,4.9,6.9,51,0.00,,,0.06,meteobridge,2013-12-12 21:15:00,
2013-12-12 15:20:00,41.7,25.0,30.47,SW,221,4.0,6.9,51,0.00,,,0.06,meteobridge,2013-12-12 21:20:00,
2013-12-12 15:25:00,42.1,24.8,30.47,SW,216,2.9,4.0,50,0.00,,,0.06,meteobridge,2013-12-12 21:25:00,
2013-12-12 15:31:00,41.9,25.2,30.46,SW,225,2.0,4.9,51,0.00,,,0.06,meteobridge,2013-12-12 21:31:00,
2013-12-12 15:35:00,41.5,24.3,30.45,South,178,2.0,8.9,50,0.00,,,0.06,meteobridge,2013-12-12 21:35:00,
2013-12-12 15:40:00,41.2,24.8,30.45,SSW,209,2.9,4.9,52,0.00,,,0.06,meteobridge,2013-12-12 21:40:00,
2013-12-12 15:45:00,41.0,24.8,30.45,West,270,2.9,4.9,52,0.01,,,0.07,meteobridge,2013-12-12 21:45:00,
2013-12-12 15:50:00,40.8,24.6,30.45,SW,220,4.9,6.0,52,0.01,,,0.07,meteobridge,2013-12-12 21:50:00,
2013-12-12 15:55:00,40.6,24.4,30.44,SSW,198,0.9,2.9,52,0.01,,,0.07,meteobridge,2013-12-12 21:55:00,
2013-12-12 16:01:00,40.8,25.0,30.44,SSW,213,2.0,2.9,53,0.01,,,0.07,meteobridge,2013-12-12 22:01:00,
2013-12-12 16:06:00,40.6,24.8,30.43,SW,215,0.0,2.9,53,0.01,,,0.07,meteobridge,2013-12-12 22:06:00,
2013-12-12 16:11:00,40.5,24.3,30.43,SSW,205,2.9,4.9,52,0.01,,,0.07,meteobridge,2013-12-12 22:11:00,
2013-12-12 16:16:00,39.9,23.7,30.43,SSW,197,2.9,4.0,52,0.01,,,0.07,meteobridge,2013-12-12 22:16:00,
2013-12-12 16:21:00,39.4,23.7,30.42,SW,232,0.9,4.9,53,0.01,,,0.07,meteobridge,2013-12-12 22:21:00,
2013-12-12 16:27:00,38.8,23.5,30.42,SSW,204,4.0,4.0,54,0.01,,,0.07,meteobridge,2013-12-12 22:27:00,
2013-12-12 16:32:00,38.7,23.9,30.42,SSW,195,2.0,4.0,55,0.01,,,0.07,meteobridge,2013-12-12 22:32:00,
2013-12-12 16:38:00,38.1,23.4,30.42,SW,220,0.9,2.0,55,0.01,,,0.07,meteobridge,2013-12-12 22:38:00,
2013-12-12 16:43:00,37.8,23.5,30.42,SW,219,0.0,2.9,56,0.00,,,0.07,meteobridge,2013-12-12 22:43:00,
2013-12-12 16:48:00,37.2,23.4,30.41,SW,219,0.9,2.0,57,0.00,,,0.07,meteobridge,2013-12-12 22:48:00,
2013-12-12 16:53:00,36.9,23.0,30.42,SW,219,0.9,2.0,57,0.00,,,0.07,meteobridge,2013-12-12 22:53:00,
2013-12-12 16:58:00,36.3,23.0,30.42,SW,219,0.9,2.0,58,0.00,,,0.07,meteobridge,2013-12-12 22:58:00,
2013-12-12 17:04:00,36.0,23.0,30.42,SW,219,0.9,2.0,59,0.00,,,0.07,meteobridge,2013-12-12 23:04:00,
2013-12-12 17:09:00,35.4,23.0,30.41,SW,219,0.9,2.9,60,0.00,,,0.07,meteobridge,2013-12-12 23:09:00,
2013-12-12 17:14:00,35.1,23.0,30.41,SSW,207,0.9,2.0,61,0.00,,,0.07,meteobridge,2013-12-12 23:14:00,
2013-12-12 17:19:00,34.5,22.5,30.41,SW,219,0.0,2.0,61,0.00,,,0.07,meteobridge,2013-12-12 23:19:00,
2013-12-12 17:24:00,34.0,22.3,30.41,SW,219,0.9,0.9,62,0.00,,,0.07,meteobridge,2013-12-12 23:24:00,
2013-12-12 17:30:00,33.4,22.3,30.41,SW,219,0.9,2.0,63,0.00,,,0.07,meteobridge,2013-12-12 23:30:00,
2013-12-12 17:35:00,33.1,22.3,30.41,SW,219,0.9,2.0,64,0.00,,,0.07,meteobridge,2013-12-12 23:35:00,
2013-12-12 17:40:00,32.5,21.7,30.40,SW,219,0.0,2.0,64,0.00,,,0.07,meteobridge,2013-12-12 23:40:00,
2013-12-12 17:45:00,32.0,21.6,30.40,SW,219,0.0,0.9,65,0.00,,,0.07,meteobridge,2013-12-12 23:45:00,
2013-12-12 17:50:00,31.6,21.6,30.40,SW,219,0.9,2.0,66,0.00,,,0.07,meteobridge,2013-12-12 23:50:00,
2013-12-12 17:56:00,31.3,21.6,30.40,South,190,0.9,2.0,67,0.00,,,0.07,meteobridge,2013-12-12 23:56:00,
2013-12-12 18:01:00,30.7,21.4,30.39,South,190,2.0,2.0,68,0.00,,,0.07,meteobridge,2013-12-13 00:01:00,
2013-12-12 18:06:00,30.4,21.7,30.40,SSE,165,0.0,2.0,70,0.00,,,0.07,meteobridge,2013-12-13 00:06:00,
2013-12-12 18:11:00,30.0,21.4,30.40,SSE,165,0.9,2.0,70,0.00,,,0.07,meteobridge,2013-12-13 00:11:00,
2013-12-12 18:16:00,29.8,21.6,30.40,SSE,165,0.9,2.0,71,0.00,,,0.07,meteobridge,2013-12-13 00:16:00,
2013-12-12 18:22:00,29.5,21.2,30.40,SSE,165,0.9,4.0,71,0.00,,,0.07,meteobridge,2013-12-13 00:22:00,
2013-12-12 18:27:00,29.3,21.0,30.40,South,171,0.0,2.0,71,0.00,,,0.07,meteobridge,2013-12-13 00:27:00,
2013-12-12 18:32:00,29.3,20.7,30.40,South,171,0.9,0.9,70,0.00,,,0.07,meteobridge,2013-12-13 00:32:00,
2013-12-12 18:37:00,29.3,20.7,30.40,South,171,0.9,0.9,70,0.00,,,0.07,meteobridge,2013-12-13 00:37:00,
2013-12-12 18:42:00,29.5,20.8,30.40,South,182,2.0,2.0,70,0.00,,,0.07,meteobridge,2013-12-13 00:42:00,
2013-12-12 18:48:00,29.3,20.7,30.40,South,182,0.9,2.0,70,0.00,,,0.07,meteobridge,2013-12-13 00:48:00,
2013-12-12 18:53:00,29.5,20.8,30.40,South,182,0.9,2.0,70,0.00,,,0.07,meteobridge,2013-12-13 00:53:00,
2013-12-12 18:58:00,29.3,20.5,30.40,South,182,0.9,2.0,69,0.00,,,0.07,meteobridge,2013-12-13 00:58:00,
2013-12-12 19:03:00,29.3,20.1,30.40,South,182,0.0,0.9,68,0.00,,,0.07,meteobridge,2013-12-13 01:03:00,
2013-12-12 19:08:00,29.1,20.3,30.40,South,182,0.9,2.0,69,0.00,,,0.07,meteobridge,2013-12-13 01:08:00,
2013-12-12 19:14:00,28.9,20.1,30.39,South,182,2.0,2.0,69,0.00,,,0.07,meteobridge,2013-12-13 01:14:00,
2013-12-12 19:19:00,28.8,19.9,30.39,South,182,0.9,2.0,69,0.00,,,0.07,meteobridge,2013-12-13 01:19:00,
2013-12-12 19:24:00,28.2,19.8,30.39,South,182,0.9,2.0,70,0.00,,,0.07,meteobridge,2013-12-13 01:24:00,
2013-12-12 19:29:00,28.0,19.6,30.39,South,182,0.9,2.0,70,0.00,,,0.07,meteobridge,2013-12-13 01:29:00,
2013-12-12 19:34:00,27.7,19.6,30.39,South,182,0.9,2.0,71,0.00,,,0.07,meteobridge,2013-12-13 01:34:00,
2013-12-12 19:40:00,27.5,19.4,30.39,South,182,0.0,2.0,71,0.00,,,0.07,meteobridge,2013-12-13 01:40:00,
2013-12-12 19:45:00,27.3,19.2,30.39,South,182,0.0,2.0,71,0.00,,,0.07,meteobridge,2013-12-13 01:45:00,
2013-12-12 19:50:00,27.3,19.2,30.39,South,182,0.9,2.0,71,0.00,,,0.07,meteobridge,2013-12-13 01:50:00,
2013-12-12 19:55:00,27.1,19.0,30.39,South,182,0.9,0.9,71,0.00,,,0.07,meteobridge,2013-12-13 01:55:00,
2013-12-12 20:00:00,27.1,19.0,30.39,South,182,0.9,2.0,71,0.00,,,0.07,meteobridge,2013-12-13 02:00:00,
2013-12-12 20:06:00,27.1,19.0,30.38,South,182,0.9,2.0,71,0.00,,,0.07,meteobridge,2013-12-13 02:06:00,
2013-12-12 20:11:00,27.0,18.9,30.38,South,182,0.9,2.0,71,0.00,,,0.07,meteobridge,2013-12-13 02:11:00,
2013-12-12 20:16:00,27.0,18.9,30.38,South,182,0.9,0.9,71,0.00,,,0.07,meteobridge,2013-12-13 02:16:00,
2013-12-12 20:21:00,27.0,18.9,30.38,South,182,0.0,0.9,71,0.00,,,0.07,meteobridge,2013-12-13 02:21:00,
2013-12-12 20:26:00,26.8,18.7,30.38,South,182,0.0,0.9,71,0.00,,,0.07,meteobridge,2013-12-13 02:26:00,
2013-12-12 20:31:00,26.4,18.7,30.38,South,182,0.9,0.9,72,0.00,,,0.07,meteobridge,2013-12-13 02:31:00,
2013-12-12 20:37:00,26.2,18.5,30.37,South,182,0.9,0.9,72,0.00,,,0.07,meteobridge,2013-12-13 02:37:00,
2013-12-12 20:42:00,26.1,18.7,30.37,South,182,0.9,0.9,73,0.00,,,0.07,meteobridge,2013-12-13 02:42:00,
2013-12-12 20:47:00,25.9,18.5,30.37,South,182,0.9,0.9,73,0.00,,,0.07,meteobridge,2013-12-13 02:47:00,
2013-12-12 20:52:00,25.7,18.3,30.37,South,182,0.0,0.9,73,0.00,,,0.07,meteobridge,2013-12-13 02:52:00,
2013-12-12 20:57:00,25.3,18.1,30.37,South,182,0.9,0.9,74,0.00,,,0.07,meteobridge,2013-12-13 02:57:00,
2013-12-12 21:03:00,25.0,18.0,30.37,South,182,0.9,2.0,74,0.00,,,0.07,meteobridge,2013-12-13 03:03:00,
2013-12-12 21:08:00,24.4,17.6,30.37,South,182,0.0,0.9,75,0.00,,,0.07,meteobridge,2013-12-13 03:08:00,
2013-12-12 21:13:00,23.9,17.4,30.37,South,182,0.9,0.9,76,0.00,,,0.07,meteobridge,2013-12-13 03:13:00,
2013-12-12 21:18:00,23.5,17.4,30.37,South,182,0.0,0.9,77,0.00,,,0.07,meteobridge,2013-12-13 03:18:00,
2013-12-12 21:23:00,23.2,17.1,30.37,South,182,0.9,0.9,77,0.00,,,0.07,meteobridge,2013-12-13 03:23:00,
2013-12-12 21:29:00,22.6,17.1,30.36,South,182,2.0,2.0,79,0.00,,,0.07,meteobridge,2013-12-13 03:29:00,
2013-12-12 21:34:00,22.1,16.9,30.36,South,182,2.0,2.0,80,0.00,,,0.07,meteobridge,2013-12-13 03:34:00,
2013-12-12 21:39:00,21.9,16.7,30.36,South,182,2.0,2.0,80,0.00,,,0.07,meteobridge,2013-12-13 03:39:00,
2013-12-12 21:44:00,21.9,16.7,30.35,SSE,165,0.9,4.0,80,0.00,,,0.07,meteobridge,2013-12-13 03:44:00,
2013-12-12 21:50:00,21.9,17.1,30.35,SSE,165,2.0,2.0,81,0.00,,,0.07,meteobridge,2013-12-13 03:50:00,
2013-12-12 21:55:00,22.1,16.9,30.36,SSE,165,2.0,2.0,80,0.00,,,0.07,meteobridge,2013-12-13 03:55:00,
2013-12-12 22:00:00,22.3,17.1,30.35,SSE,165,0.9,2.0,80,0.00,,,0.07,meteobridge,2013-12-13 04:00:00,
2013-12-12 22:05:00,22.3,17.1,30.35,SSE,165,2.0,2.0,80,0.00,,,0.07,meteobridge,2013-12-13 04:05:00,
2013-12-12 22:10:00,22.3,16.7,30.35,SSE,165,0.9,0.9,79,0.00,,,0.07,meteobridge,2013-12-13 04:10:00,
2013-12-12 22:16:00,22.3,17.1,30.35,SSE,165,0.9,2.0,80,0.00,,,0.07,meteobridge,2013-12-13 04:16:00,
2013-12-12 22:21:00,22.3,16.7,30.34,SSE,165,0.9,2.0,79,0.00,,,0.07,meteobridge,2013-12-13 04:21:00,
2013-12-12 22:26:00,22.3,17.1,30.34,SSE,165,0.9,0.9,80,0.00,,,0.07,meteobridge,2013-12-13 04:26:00,
2013-12-12 22:31:00,22.3,16.7,30.35,SSE,165,0.0,0.9,79,0.00,,,0.07,meteobridge,2013-12-13 04:31:00,
2013-12-12 22:36:00,22.3,16.7,30.35,SSE,165,0.0,0.9,79,0.00,,,0.07,meteobridge,2013-12-13 04:36:00,
2013-12-12 22:42:00,22.3,16.7,30.35,SSE,165,0.9,0.9,79,0.00,,,0.07,meteobridge,2013-12-13 04:42:00,
2013-12-12 22:47:00,22.3,17.1,30.34,SSE,165,0.9,2.0,80,0.00,,,0.07,meteobridge,2013-12-13 04:47:00,
2013-12-12 22:52:00,22.3,16.7,30.34,SSE,158,0.9,2.0,79,0.00,,,0.07,meteobridge,2013-12-13 04:52:00,
2013-12-12 22:57:00,22.5,16.9,30.34,SSE,158,2.0,2.0,79,0.00,,,0.07,meteobridge,2013-12-13 04:57:00,
2013-12-12 23:01:00,22.6,16.9,30.34,SSE,158,2.0,2.0,78,0.00,,,0.07,meteobridge,2013-12-13 05:01:00,
2013-12-12 23:02:00,22.6,16.9,30.34,SSE,158,0.9,2.9,78,0.00,,,0.07,meteobridge,2013-12-13 05:02:00,
2013-12-12 23:03:00,22.8,17.1,30.33,SSE,158,2.0,2.9,78,0.00,,,0.07,meteobridge,2013-12-13 05:03:00,
2013-12-12 23:08:00,22.8,17.1,30.33,SSE,158,0.9,2.0,78,0.00,,,0.07,meteobridge,2013-12-13 05:08:00,
2013-12-12 23:09:00,22.8,17.1,30.33,SSE,158,2.0,2.0,78,0.00,,,0.07,meteobridge,2013-12-13 05:09:00,
2013-12-12 23:14:00,23.0,16.9,30.33,SSE,153,2.0,2.0,77,0.00,,,0.07,meteobridge,2013-12-13 05:14:00,
2013-12-12 23:19:00,23.2,17.1,30.33,SSE,153,2.0,2.9,77,0.00,,,0.07,meteobridge,2013-12-13 05:19:00,
2013-12-12 23:22:00,23.0,16.9,30.32,SSE,153,0.9,2.0,77,0.00,,,0.07,meteobridge,2013-12-13 05:22:00,
2013-12-12 23:27:00,23.0,16.9,30.32,SSE,153,2.0,2.0,77,0.00,,,0.07,meteobridge,2013-12-13 05:27:00,
2013-12-12 23:33:00,23.2,17.1,30.32,SSE,153,0.9,2.0,77,0.00,,,0.07,meteobridge,2013-12-13 05:33:00,
2013-12-12 23:38:00,23.0,16.9,30.32,SSE,153,2.0,2.0,77,0.00,,,0.07,meteobridge,2013-12-13 05:38:00,
2013-12-12 23:43:00,22.8,17.1,30.32,SSE,153,0.9,2.0,78,0.00,,,0.07,meteobridge,2013-12-13 05:43:00,
2013-12-12 23:48:00,22.6,16.9,30.32,SSE,150,0.0,2.0,78,0.00,,,0.07,meteobridge,2013-12-13 05:48:00,
2013-12-12 23:54:00,22.3,16.7,30.31,SSE,159,0.0,2.0,79,0.00,,,0.07,meteobridge,2013-12-13 05:54:00,
2013-12-12 23:59:00,21.9,16.7,30.31,SSE,159,0.9,4.0,80,0.00,,,0.07,meteobridge,2013-12-13 05:59:00,